Location: Big Prairie
(40.6673°N, 82.0952°W)
Time: 20:19:44
(UTC+00:00)

Cosmos 841 Rocket - Pass Details

Date: 30 June 2022
Orbit: 746 x 772 km, 74.0° (Epoch: 11 August)

Event Time Altitude Azimuth Distance (km) Brightness Sun altitude
Exits shadow 07:24:49 30° 154° (SSE) 1,329 4.4 -21.0°
Maximum altitude 07:26:51 44° 103° (ESE) 1,023 4.2 -20.8°
Drops below altitude 10° 07:31:44 10° 32° (NNE) 2,277 7.2 -20.4°
Sets 07:34:11 0° 26° (NNE) 3,209 8.3 -20.1°
